| time (UTC) | temp C | wind direction | speed KPH | gust KPH | rain 1hr cm | rain 24hr cm | rain mn cm | humidity % | barometer mb |
| 20260507104546 | 18 | 273 | 6.4 | 16.1 | 0.00 | 0.00 | 0.00 | 67 | 1012.8 |
| 20260507103014 | 17 | 250 | 8.0 | 16.1 | 0.00 | 0.00 | 0.00 | 67 | 1013.0 |
| 20260507101602 | 17 | 228 | 9.7 | 14.5 | 0.00 | 0.00 | 0.00 | 66 | 1013.0 |
| 20260507100121 | 17 | 268 | 8.0 | 16.1 | 0.00 | 0.00 | 0.00 | 67 | 1013.1 |
| 20260507094556 | 17 | 232 | 8.0 | 14.5 | 0.00 | 0.00 | 0.00 | 67 | 1013.3 |
| 20260507093024 | 17 | 274 | 9.7 | 16.1 | 0.00 | 0.00 | 0.00 | 68 | 1013.3 |
| 20260507091521 | 17 | 222 | 9.7 | 14.5 | 0.00 | 0.00 | 0.00 | 68 | 1013.3 |
| 20260507090055 | 17 | 229 | 8.0 | 17.7 | 0.00 | 0.00 | 0.00 | 69 | 1013.1 |
| 20260507084547 | 17 | 223 | 8.0 | 16.1 | 0.00 | 0.00 | 0.00 | 69 | 1013.0 |
| 20260507083015 | 17 | 219 | 8.0 | 14.5 | 0.00 | 0.00 | 0.00 | 70 | 1012.9 |
| 20260507081522 | 16 | 234 | 6.4 | 12.9 | 0.00 | 0.00 | 0.00 | 70 | 1012.9 |
| 20260507080047 | 16 | 230 | 8.0 | 12.9 | 0.00 | 0.00 | 0.00 | 71 | 1012.8 |
| 20260507074527 | 16 | 234 | 6.4 | 11.3 | 0.00 | 0.00 | 0.00 | 75 | 1012.9 |
| 20260507073048 | 16 | 231 | 4.8 | 11.3 | 0.00 | 0.00 | 0.00 | 80 | 1012.9 |
| 20260507071542 | 15 | 213 | 4.8 | 8.0 | 0.00 | 0.00 | 0.00 | 84 | 1012.7 |
| 20260507070018 | 15 | 220 | 3.2 | 9.7 | 0.00 | 0.00 | 0.00 | 87 | 1012.8 |
| 20260507064507 | 15 | 228 | 1.6 | 9.7 | 0.00 | 0.00 | 0.00 | 88 | 1012.6 |
| 20260507063037 | 15 | 254 | 3.2 | 6.4 | 0.00 | 0.00 | 0.00 | 89 | 1012.5 |
| 20260507061509 | 14 | 291 | 0.0 | 0.0 | 0.00 | 0.00 | 0.00 | 89 | 1012.4 |
| 20260507060039 | 13 | 291 | 0.0 | 0.0 | 0.00 | 0.00 | 0.00 | 90 | 1012.5 |
| 20260507054538 | 13 | 291 | 0.0 | 0.0 | 0.00 | 0.00 | 0.00 | 89 | 1012.5 |
| 20260507053105 | 12 | 291 | 0.0 | 0.0 | 0.00 | 0.00 | 0.00 | 89 | 1012.4 |
| 20260507051541 | 11 | 291 | 0.0 | 0.0 | 0.00 | 0.00 | 0.00 | 89 | 1012.1 |
| 20260507050023 | 11 | 291 | 0.0 | 0.0 | 0.00 | 0.00 | 0.00 | 88 | 1012.1 |
| 20260507044552 | 11 | 291 | 0.0 | 0.0 | 0.00 | 0.00 | 0.00 | 87 | 1011.9 |
| 20260507043014 | 11 | 291 | 0.0 | 0.0 | 0.00 | 0.03 | 0.00 | 87 | 1011.8 |
| 20260507041509 | 12 | 291 | 0.0 | 0.0 | 0.00 | 0.03 | 0.00 | 87 | 1011.8 |
| 20260507040041 | 12 | 291 | 0.0 | 0.0 | 0.00 | 0.03 | 0.00 | 86 | 1011.8 |
| 20260507034514 | 12 | 291 | 0.0 | 0.0 | 0.00 | 0.03 | 0.00 | 86 | 1011.8 |
| 20260507033051 | 12 | 291 | 0.0 | 0.0 | 0.00 | 0.03 | 0.00 | 86 | 1011.8 |
| 20260507031555 | 12 | 291 | 0.0 | 0.0 | 0.00 | 0.03 | 0.00 | 85 | 1011.9 |
| 20260507030005 | 13 | 291 | 0.0 | 0.0 | 0.00 | 0.03 | 0.00 | 85 | 1011.9 |
| 20260507024559 | 13 | 291 | 0.0 | 0.0 | 0.00 | 0.03 | 0.00 | 85 | 1011.8 |
| 20260507023028 | 13 | 291 | 0.0 | 0.0 | 0.00 | 0.03 | 0.03 | 85 | 1011.9 |
| 20260507021523 | 14 | 291 | 0.0 | 0.0 | 0.00 | 0.03 | 0.03 | 85 | 1011.8 |
| 20260507020050 | 14 | 291 | 1.6 | 4.8 | 0.00 | 0.03 | 0.03 | 84 | 1011.9 |
| 20260507014548 | 15 | 291 | 0.0 | 6.4 | 0.00 | 0.03 | 0.03 | 84 | 1011.9 |
| 20260507013001 | 15 | 294 | 1.6 | 4.8 | 0.00 | 0.03 | 0.03 | 84 | 1011.9 |
| 20260507011559 | 15 | 302 | 3.2 | 6.4 | 0.00 | 0.03 | 0.03 | 84 | 1012.0 |
| 20260507010032 | 15 | 323 | 1.6 | 8.0 | 0.00 | 0.03 | 0.03 | 84 | 1012.1 |
| 20260507004558 | 15 | 276 | 6.4 | 16.1 | 0.00 | 0.03 | 0.03 | 83 | 1012.2 |
| 20260507003026 | 15 | 266 | 6.4 | 12.9 | 0.00 | 0.84 | 0.03 | 83 | 1012.2 |
| 20260507001526 | 15 | 265 | 8.0 | 17.7 | 0.00 | 0.84 | 0.03 | 83 | 1012.4 |
| 20260507000053 | 15 | 256 | 9.7 | 20.9 | 0.00 | 0.84 | 0.03 | 83 | 1012.4 |
| 20260506234549 | 15 | 265 | 9.7 | 20.9 | 0.00 | 0.84 | 0.03 | 83 | 1012.6 |
| 20260506233017 | 15 | 236 | 12.9 | 19.3 | 0.00 | 0.86 | 0.03 | 82 | 1012.7 |
| 20260506231505 | 15 | 241 | 11.3 | 27.4 | 0.00 | 0.86 | 0.03 | 82 | 1012.6 |
| 20260506230034 | 15 | 246 | 11.3 | 27.4 | 0.00 | 0.86 | 0.03 | 82 | 1012.8 |
| 20260506224506 | 15 | 259 | 9.7 | 20.9 | 0.00 | 0.86 | 0.03 | 81 | 1012.7 |
| 20260506223036 | 15 | 258 | 11.3 | 24.1 | 0.00 | 0.86 | 0.03 | 81 | 1012.8 |
| 20260506221532 | 15 | 261 | 11.3 | 29.0 | 0.00 | 0.86 | 0.03 | 80 | 1012.8 |
| 20260506220106 | 15 | 279 | 6.4 | 20.9 | 0.00 | 0.86 | 0.03 | 80 | 1012.7 |
| 20260506214559 | 15 | 256 | 4.8 | 12.9 | 0.00 | 0.86 | 0.03 | 79 | 1012.7 |
| 20260506213027 | 14 | 322 | 3.2 | 8.0 | 0.00 | 0.86 | 0.03 | 79 | 1012.7 |
| 20260506211524 | 14 | 310 | 3.2 | 9.7 | 0.00 | 0.86 | 0.03 | 78 | 1012.7 |
| 20260506210055 | 14 | 283 | 3.2 | 6.4 | 0.00 | 0.86 | 0.03 | 77 | 1012.6 |
| 20260506204551 | 14 | 311 | 0.0 | 4.8 | 0.00 | 0.86 | 0.03 | 77 | 1012.6 |
| 20260506203017 | 15 | 308 | 1.6 | 6.4 | 0.00 | 0.86 | 0.03 | 76 | 1012.4 |
| 20260506201513 | 15 | 300 | 0.0 | 4.8 | 0.00 | 0.86 | 0.03 | 75 | 1012.2 |
| 20260506200040 | 15 | 300 | 1.6 | 4.8 | 0.00 | 0.86 | 0.03 | 74 | 1012.1 |
| 20260506194538 | 15 | 300 | 1.6 | 6.4 | 0.00 | 0.86 | 0.03 | 74 | 1011.9 |
| 20260506193107 | 16 | 283 | 3.2 | 12.9 | 0.00 | 0.86 | 0.03 | 74 | 1011.5 |
| 20260506191537 | 15 | 275 | 6.4 | 16.1 | 0.00 | 0.86 | 0.03 | 73 | 1011.3 |
| 20260506190005 | 15 | 262 | 8.0 | 19.3 | 0.00 | 0.86 | 0.03 | 73 | 1011.1 |
| 20260506184602 | 16 | 250 | 9.7 | 17.7 | 0.00 | 0.86 | 0.03 | 73 | 1010.9 |
| 20260506183027 | 16 | 267 | 9.7 | 17.7 | 0.00 | 0.86 | 0.03 | 72 | 1010.8 |
| 20260506181522 | 16 | 248 | 6.4 | 17.7 | 0.00 | 0.86 | 0.03 | 72 | 1010.7 |
| 20260506174550 | 16 | 256 | 8.0 | 20.9 | 0.00 | 0.86 | 0.03 | 71 | 1010.5 |
| 20260506173017 | 17 | 222 | 8.0 | 16.1 | 0.00 | 0.86 | 0.03 | 71 | 1010.2 |
| 20260506171513 | 17 | 208 | 9.7 | 19.3 | 0.00 | 0.86 | 0.03 | 70 | 1010.1 |
| 20260506170056 | 17 | 240 | 8.0 | 19.3 | 0.00 | 0.86 | 0.03 | 70 | 1010.2 |
| 20260506164539 | 17 | 259 | 11.3 | 20.9 | 0.00 | 0.86 | 0.03 | 70 | 1010.1 |
| 20260506163014 | 17 | 228 | 11.3 | 24.1 | 0.00 | 0.86 | 0.03 | 70 | 1010.2 |
| 20260506161503 | 17 | 246 | 9.7 | 20.9 | 0.00 | 0.86 | 0.03 | 70 | 1010.3 |
| 20260506160031 | 17 | 223 | 11.3 | 20.9 | 0.00 | 0.86 | 0.03 | 68 | 1010.4 |
| 20260506154527 | 17 | 261 | 9.7 | 17.7 | 0.00 | 0.86 | 0.03 | 68 | 1010.3 |
| 20260506153107 | 17 | 227 | 11.3 | 22.5 | 0.00 | 0.86 | 0.03 | 68 | 1010.3 |
| 20260506151532 | 17 | 296 | 9.7 | 22.5 | 0.00 | 0.86 | 0.03 | 68 | 1010.2 |
| 20260506144535 | 17 | 248 | 11.3 | 24.1 | 0.00 | 0.86 | 0.03 | 67 | 1010.5 |
| 20260506143004 | 17 | 264 | 14.5 | 25.7 | 0.00 | 0.86 | 0.03 | 67 | 1010.5 |
| 20260506141600 | 17 | 262 | 12.9 | 24.1 | 0.00 | 0.86 | 0.03 | 67 | 1010.5 |
| 20260506140029 | 18 | 222 | 14.5 | 25.7 | 0.00 | 0.86 | 0.03 | 67 | 1010.6 |
| 20260506134524 | 17 | 221 | 14.5 | 27.4 | 0.00 | 0.86 | 0.03 | 67 | 1010.7 |
| 20260506133055 | 17 | 220 | 11.3 | 22.5 | 0.00 | 0.86 | 0.03 | 68 | 1010.8 |
| 20260506131551 | 17 | 230 | 16.1 | 25.7 | 0.00 | 0.86 | 0.03 | 67 | 1010.9 |
| 20260506130020 | 17 | 253 | 12.9 | 20.9 | 0.00 | 0.86 | 0.03 | 68 | 1010.9 |
| 20260506124515 | 17 | 248 | 14.5 | 25.7 | 0.00 | 0.86 | 0.03 | 69 | 1011.0 |
| 20260506123046 | 17 | 229 | 12.9 | 25.7 | 0.00 | 0.86 | 0.03 | 70 | 1011.0 |
| 20260506121544 | 17 | 239 | 14.5 | 29.0 | 0.00 | 0.86 | 0.03 | 71 | 1011.0 |
| 20260506120007 | 17 | 229 | 12.9 | 33.8 | 0.00 | 0.86 | 0.03 | 70 | 1010.8 |
| 20260506114504 | 17 | 219 | 17.7 | 30.6 | 0.00 | 0.86 | 0.03 | 69 | 1010.8 |
| 20260506113035 | 17 | 259 | 14.5 | 29.0 | 0.00 | 0.86 | 0.03 | 70 | 1010.8 |
| 20260506111536 | 17 | 192 | 16.1 | 29.0 | 0.00 | 0.86 | 0.03 | 69 | 1010.9 |
| 20260506110105 | 17 | 267 | 17.7 | 25.7 | 0.00 | 0.86 | 0.03 | 70 | 1010.9 |